This is the latest recevied weather packets stored in our database for station/object KF6YUA. If no packets are shown the sender has not sent any weather packets the latest 10 day(s).
| Time | Temp. | Humidity | Pressure | Rain* | Wind** | Luminosity | Snow |
|---|---|---|---|---|---|---|---|
| 1777316493 | 16.11° C | 72% | 1019.4 hPa | 0 mm | - | 607 W/m² | - |
| 1777316190 | 15.56° C | 70% | 1019.3 hPa | 0 mm | - | 170 W/m² | - |
| 1777315887 | 16.11° C | 67% | 1019.3 hPa | 0 mm | - | 179 W/m² | - |
| 1777315586 | 17.22° C | 67% | 1019.6 hPa | 0 mm | - | 642 W/m² | - |
| 1777315283 | 16.11° C | 69% | 1019.4 hPa | 0 mm | - | 599 W/m² | - |
| 1777314981 | 16.67° C | 67% | 1019.5 hPa | 0 mm | - | 331 W/m² | - |
| 1777314676 | 17.22° C | 67% | 1019.6 hPa | 0 mm | - | 363 W/m² | - |
| 1777314373 | 16.67° C | 68% | 1019.3 hPa | 0 mm | - | 618 W/m² | - |
| 1777314070 | 17.22° C | 64% | 1019.3 hPa | 0 mm | - | 854 W/m² | - |
| 1777313768 | 17.78° C | 69% | 1019.1 hPa | 0 mm | - | 814 W/m² | - |
| 1777313465 | 16.67° C | 67% | 1019.4 hPa | 0 mm | - | 613 W/m² | - |
| 1777313162 | 16.67° C | 68% | 1019.4 hPa | 0 mm | - | 341 W/m² | - |
| 1777312858 | 16.11° C | 69% | 1019.1 hPa | 0 mm | - | 454 W/m² | - |
| 1777312555 | 16.11° C | 70% | 1019.1 hPa | 0 mm | - | 437 W/m² | - |
| 1777312252 | 16.11° C | 69% | 1019.3 hPa | 0 mm | - | 318 W/m² | - |
| 1777311949 | 16.67° C | 67% | 1019.3 hPa | 0 mm | - | 404 W/m² | - |
| 1777311646 | 16.67° C | 66% | 1019.2 hPa | 0 mm | - | 708 W/m² | - |
| 1777311344 | 15.56° C | 69% | 1019.5 hPa | 0 mm | - | 505 W/m² | - |
| 1777311041 | 15° C | 70% | 1019.2 hPa | 0 mm | - | 735 W/m² | - |
| 1777310739 | 15.56° C | 69% | 1019.3 hPa | 0 mm | - | 735 W/m² | - |
| 1777310436 | 15° C | 74% | 1019.4 hPa | 0 mm | - | 344 W/m² | - |
| 1777310133 | 15.56° C | 69% | 1019.4 hPa | 0 mm | - | 267 W/m² | - |
| 1777309830 | 15.56° C | 73% | 1019.2 hPa | 0 mm | - | 357 W/m² | - |
| 1777309528 | 15° C | 71% | 1019.3 hPa | 0 mm | - | 256 W/m² | - |
| 1777309225 | 15° C | 71% | 1019.2 hPa | 0 mm | - | 273 W/m² | - |
* Rain latest hour (hover to see other rain measurements)
** Current wind speed in m/s (hover to see current wind gust speed)